Time,TemperatureF,DewpointF,PressureIn,WindDirection,WindDirectionDegrees,WindSpeedMPH,WindSpeedGustMPH,Humidity,HourlyPrecipIn,Conditions,Clouds,dailyrainin,SolarRadiationWatts/m^2,SoftwareType,DateUTC
2013-08-23 00:00:00,68.1,65.7,29.74,SW,221,1.0,1.0,92,0.00,,,0.00,0,Wunderground v.1.15,2013-08-23 04:00:00,
2013-08-23 00:10:00,68.1,65.4,29.75,SW,221,0.0,0.0,91,0.00,,,0.00,0,Wunderground v.1.15,2013-08-23 04:10:00,
2013-08-23 00:20:00,68.1,65.7,29.75,SSW,193,1.0,1.0,92,0.00,,,0.00,0,Wunderground v.1.15,2013-08-23 04:20:00,
2013-08-23 00:30:00,68.3,65.6,29.75,SW,215,2.0,2.0,91,0.00,,,0.00,0,Wunderground v.1.15,2013-08-23 04:30:00,
2013-08-23 00:40:00,68.5,65.8,29.75,SSW,200,1.0,1.0,91,0.00,,,0.00,0,Wunderground v.1.15,2013-08-23 04:40:00,
2013-08-23 00:50:00,68.5,65.8,29.75,SSW,200,0.0,3.0,91,0.00,,,0.00,0,Wunderground v.1.15,2013-08-23 04:50:00,
2013-08-23 01:00:00,68.5,65.8,29.75,SSW,200,0.0,0.0,91,0.00,,,0.00,0,Wunderground v.1.15,2013-08-23 05:00:00,
2013-08-23 01:10:00,68.5,65.8,29.75,SSW,200,0.0,0.0,91,0.00,,,0.00,0,Wunderground v.1.15,2013-08-23 05:10:00,
2013-08-23 01:20:00,68.5,65.8,29.75,SSW,200,0.0,0.0,91,0.00,,,0.00,0,Wunderground v.1.15,2013-08-23 05:20:00,
2013-08-23 01:30:00,68.5,65.8,29.75,SSW,200,0.0,0.0,91,0.00,,,0.00,0,Wunderground v.1.15,2013-08-23 05:30:00,
2013-08-23 01:40:00,68.5,65.8,29.75,SSW,200,0.0,5.0,91,0.00,,,0.00,0,Wunderground v.1.15,2013-08-23 05:40:00,
2013-08-23 01:50:00,68.5,65.8,29.76,SSW,200,0.0,5.0,91,0.00,,,0.00,0,Wunderground v.1.15,2013-08-23 05:50:00,
2013-08-23 02:00:00,68.4,66.0,29.76,SSW,200,0.0,0.0,92,0.00,,,0.00,0,Wunderground v.1.15,2013-08-23 06:00:00,
2013-08-23 02:10:00,68.4,66.0,29.76,SSW,200,0.0,0.0,92,0.00,,,0.00,0,Wunderground v.1.15,2013-08-23 06:10:00,
2013-08-23 02:20:00,68.4,65.7,29.77,SSW,200,0.0,0.0,91,0.00,,,0.00,0,Wunderground v.1.15,2013-08-23 06:20:00,
2013-08-23 02:30:00,68.3,65.9,29.77,SSW,200,0.0,0.0,92,0.00,,,0.00,0,Wunderground v.1.15,2013-08-23 06:30:00,
2013-08-23 02:40:00,68.6,65.9,29.77,SSW,200,0.0,0.0,91,0.00,,,0.00,0,Wunderground v.1.15,2013-08-23 06:40:00,
2013-08-23 02:50:00,69.0,65.9,29.76,SSW,200,0.0,0.0,90,0.00,,,0.00,0,Wunderground v.1.15,2013-08-23 06:50:00,
2013-08-23 03:00:00,69.2,65.8,29.77,SSW,200,0.0,0.0,89,0.00,,,0.00,0,Wunderground v.1.15,2013-08-23 07:00:00,
2013-08-23 03:10:00,69.3,65.9,29.76,ENE,69,0.0,0.0,89,0.00,,,0.00,0,Wunderground v.1.15,2013-08-23 07:10:00,
2013-08-23 03:20:00,69.3,65.9,29.77,ENE,71,0.0,2.0,89,0.00,,,0.00,0,Wunderground v.1.15,2013-08-23 07:20:00,
2013-08-23 03:30:00,69.3,65.3,29.77,ESE,121,0.0,0.0,87,0.00,,,0.00,0,Wunderground v.1.15,2013-08-23 07:30:00,
2013-08-23 03:40:00,69.4,65.0,29.77,NNE,28,1.0,2.0,86,0.00,,,0.00,0,Wunderground v.1.15,2013-08-23 07:40:00,
2013-08-23 03:50:00,69.3,64.9,29.77,NE,39,0.0,2.0,86,0.00,,,0.00,0,Wunderground v.1.15,2013-08-23 07:50:00,
2013-08-23 04:00:00,69.2,64.8,29.77,NE,47,0.0,0.0,86,0.00,,,0.00,0,Wunderground v.1.15,2013-08-23 08:00:00,
2013-08-23 04:10:00,69.0,64.3,29.77,SSE,159,0.0,0.0,85,0.00,,,0.00,0,Wunderground v.1.15,2013-08-23 08:10:00,
2013-08-23 04:20:00,68.8,64.4,29.77,NE,37,0.0,0.0,86,0.00,,,0.00,0,Wunderground v.1.15,2013-08-23 08:20:00,
2013-08-23 04:30:00,68.4,64.0,29.78,NE,38,0.0,2.0,86,0.00,,,0.00,0,Wunderground v.1.15,2013-08-23 08:30:00,
2013-08-23 04:40:00,68.2,63.9,29.78,NE,38,0.0,4.0,86,0.00,,,0.00,0,Wunderground v.1.15,2013-08-23 08:40:00,
2013-08-23 04:50:00,67.8,63.8,29.79,NE,42,0.0,4.0,87,0.00,,,0.00,0,Wunderground v.1.15,2013-08-23 08:50:00,
2013-08-23 05:00:00,67.5,63.5,29.80,ENE,59,0.0,1.0,87,0.00,,,0.00,0,Wunderground v.1.15,2013-08-23 09:00:00,
2013-08-23 05:10:00,67.4,63.4,29.80,NE,55,1.0,1.0,87,0.00,,,0.00,0,Wunderground v.1.15,2013-08-23 09:10:00,
2013-08-23 05:20:00,67.3,63.3,29.81,SE,124,0.0,2.0,87,0.00,,,0.00,0,Wunderground v.1.15,2013-08-23 09:20:00,
2013-08-23 05:30:00,67.1,62.8,29.81,ESE,110,0.0,0.0,86,0.00,,,0.00,0,Wunderground v.1.15,2013-08-23 09:30:00,
2013-08-23 05:40:00,66.8,62.8,29.82,ESE,102,0.0,4.0,87,0.00,,,0.00,0,Wunderground v.1.15,2013-08-23 09:40:00,
2013-08-23 05:50:00,66.4,62.7,29.82,NNE,31,0.0,4.0,88,0.00,,,0.00,5,Wunderground v.1.15,2013-08-23 09:50:00,
2013-08-23 06:00:00,66.0,62.3,29.83,East,92,0.0,0.0,88,0.00,,,0.00,7,Wunderground v.1.15,2013-08-23 10:00:00,
2013-08-23 06:10:00,65.8,62.1,29.83,NE,34,0.0,0.0,88,0.00,,,0.00,11,Wunderground v.1.15,2013-08-23 10:10:00,
2013-08-23 06:20:00,65.4,61.8,29.84,NNE,23,1.0,1.0,88,0.00,,,0.00,18,Wunderground v.1.15,2013-08-23 10:20:00,
2013-08-23 06:30:00,65.1,61.8,29.84,NNE,26,1.0,3.0,89,0.00,,,0.00,14,Wunderground v.1.15,2013-08-23 10:30:00,
2013-08-23 06:40:00,64.9,61.3,29.85,NE,54,2.0,5.0,88,0.00,,,0.00,18,Wunderground v.1.15,2013-08-23 10:40:00,
2013-08-23 06:50:00,64.9,60.3,29.85,NNE,18,3.0,3.0,85,0.00,,,0.00,19,Wunderground v.1.15,2013-08-23 10:50:00,
2013-08-23 07:00:00,64.7,59.1,29.86,NE,42,4.0,5.0,82,0.00,,,0.00,19,Wunderground v.1.15,2013-08-23 11:00:00,
2013-08-23 07:10:00,64.7,58.4,29.86,ENE,74,4.0,4.0,80,0.00,,,0.00,26,Wunderground v.1.15,2013-08-23 11:10:00,
2013-08-23 07:20:00,64.8,57.8,29.86,NNW,328,5.0,5.0,78,0.00,,,0.00,33,Wunderground v.1.15,2013-08-23 11:20:00,
2013-08-23 07:30:00,65.3,57.9,29.87,North,360,4.0,4.0,77,0.00,,,0.00,32,Wunderground v.1.15,2013-08-23 11:30:00,
2013-08-23 07:40:00,65.7,58.3,29.87,NNE,26,3.0,8.0,77,0.00,,,0.00,35,Wunderground v.1.15,2013-08-23 11:40:00,
2013-08-23 07:50:00,66.1,57.9,29.88,NE,46,5.0,10.0,75,0.00,,,0.00,49,Wunderground v.1.15,2013-08-23 11:50:00,
2013-08-23 08:00:00,66.4,57.9,29.88,ENE,77,5.0,5.0,74,0.00,,,0.00,62,Wunderground v.1.15,2013-08-23 12:00:00,
2013-08-23 08:10:00,66.2,57.3,29.88,North,350,4.0,5.0,73,0.00,,,0.00,74,Wunderground v.1.15,2013-08-23 12:10:00,
2013-08-23 08:20:00,66.3,57.8,29.88,NNW,327,4.0,4.0,74,0.00,,,0.00,81,Wunderground v.1.15,2013-08-23 12:20:00,
2013-08-23 08:30:00,66.3,57.8,29.89,North,9,4.0,5.0,74,0.00,,,0.00,100,Wunderground v.1.15,2013-08-23 12:30:00,
2013-08-23 08:40:00,66.5,57.6,29.89,NNE,12,5.0,15.0,73,0.00,,,0.00,128,Wunderground v.1.15,2013-08-23 12:40:00,
2013-08-23 08:50:00,66.9,57.6,29.89,North,5,4.0,4.0,72,0.00,,,0.00,105,Wunderground v.1.15,2013-08-23 12:50:00,
2013-08-23 09:00:00,67.0,57.3,29.90,North,5,4.0,4.0,71,0.00,,,0.00,88,Wunderground v.1.15,2013-08-23 13:00:00,
2013-08-23 09:10:00,66.9,57.6,29.90,NE,37,3.0,3.0,72,0.00,,,0.00,76,Wunderground v.1.15,2013-08-23 13:10:00,
2013-08-23 09:20:00,66.8,57.5,29.91,North,5,3.0,5.0,72,0.00,,,0.00,188,Wunderground v.1.15,2013-08-23 13:20:00,
2013-08-23 09:30:00,67.5,57.8,29.90,North,355,3.0,3.0,71,0.00,,,0.00,100,Wunderground v.1.15,2013-08-23 13:30:00,
2013-08-23 09:40:00,68.1,57.1,29.91,NNE,30,2.0,12.0,68,0.00,,,0.00,104,Wunderground v.1.15,2013-08-23 13:40:00,
2013-08-23 09:50:00,68.7,56.9,29.91,NNE,12,3.0,12.0,66,0.00,,,0.00,197,Wunderground v.1.15,2013-08-23 13:50:00,
2013-08-23 10:00:00,69.1,56.4,29.91,NE,48,4.0,5.0,64,0.00,,,0.00,165,Wunderground v.1.15,2013-08-23 14:00:00,
2013-08-23 10:10:00,69.3,56.2,29.92,NNE,30,4.0,4.0,63,0.00,,,0.00,156,Wunderground v.1.15,2013-08-23 14:10:00,
2013-08-23 10:20:00,69.2,56.1,29.92,NNE,26,2.0,2.0,63,0.00,,,0.00,128,Wunderground v.1.15,2013-08-23 14:20:00,
2013-08-23 10:30:00,69.2,56.5,29.92,North,9,2.0,2.0,64,0.00,,,0.00,163,Wunderground v.1.15,2013-08-23 14:30:00,
2013-08-23 10:40:00,69.5,56.8,29.92,North,360,2.0,2.0,64,0.00,,,0.00,202,Wunderground v.1.15,2013-08-23 14:40:00,
2013-08-23 10:50:00,69.9,56.3,29.92,North,355,2.0,2.0,62,0.00,,,0.00,155,Wunderground v.1.15,2013-08-23 14:50:00,
2013-08-23 11:00:00,70.3,57.1,29.93,NNE,19,1.0,1.0,63,0.00,,,0.00,221,Wunderground v.1.15,2013-08-23 15:00:00,
2013-08-23 11:10:00,70.8,56.7,29.93,NE,52,1.0,3.0,61,0.00,,,0.00,193,Wunderground v.1.15,2013-08-23 15:10:00,
2013-08-23 11:20:00,71.7,57.5,29.92,ENE,67,3.0,3.0,61,0.00,,,0.00,721,Wunderground v.1.15,2013-08-23 15:20:00,
2013-08-23 11:30:00,72.8,57.6,29.92,NE,36,3.0,3.0,59,0.00,,,0.00,846,Wunderground v.1.15,2013-08-23 15:30:00,
2013-08-23 11:40:00,73.6,57.4,29.92,ENE,70,2.0,2.0,57,0.00,,,0.00,819,Wunderground v.1.15,2013-08-23 15:40:00,
2013-08-23 11:50:00,73.7,55.5,29.92,NE,36,5.0,8.0,53,0.00,,,0.00,898,Wunderground v.1.15,2013-08-23 15:50:00,
2013-08-23 12:00:00,74.1,56.9,29.92,NE,34,5.0,7.0,55,0.00,,,0.00,983,Wunderground v.1.15,2013-08-23 16:00:00,
2013-08-23 12:20:00,73.7,56.5,29.92,ENE,71,5.0,5.0,55,0.00,,,0.00,835,Wunderground v.1.15,2013-08-23 16:20:00,
2013-08-23 12:24:00,73.5,56.8,29.92,SSW,201,5.0,5.0,56,0.00,,,0.00,842,Wunderground v.1.15,2013-08-23 16:24:00,
2013-08-23 12:30:00,74.3,55.5,29.92,NW,323,5.0,5.0,52,0.00,,,0.00,840,Wunderground v.1.15,2013-08-23 16:30:00,
2013-08-23 12:54:00,74.3,53.9,29.92,North,350,6.0,10.0,49,0.00,,,0.00,821,Wunderground v.1.15,2013-08-23 16:54:00,
2013-08-23 13:00:00,75.3,53.7,29.92,NE,52,5.0,5.0,47,0.00,,,0.00,809,Wunderground v.1.15,2013-08-23 17:00:00,
2013-08-23 13:04:00,74.6,53.6,29.92,NNW,343,5.0,10.0,48,0.00,,,0.00,812,Wunderground v.1.15,2013-08-23 17:04:00,
2013-08-23 13:10:00,75.3,53.1,29.92,NNE,20,5.0,5.0,46,0.00,,,0.00,802,Wunderground v.1.15,2013-08-23 17:10:00,
2013-08-23 13:20:00,75.5,52.7,29.93,NNE,25,5.0,5.0,45,0.00,,,0.00,796,Wunderground v.1.15,2013-08-23 17:20:00,
2013-08-23 13:30:00,75.4,50.7,29.93,NNE,29,4.0,4.0,42,0.00,,,0.00,789,Wunderground v.1.15,2013-08-23 17:30:00,
2013-08-23 13:54:00,75.4,49.4,29.93,NE,38,6.0,17.0,40,0.00,,,0.00,777,Wunderground v.1.15,2013-08-23 17:54:00,
2013-08-23 14:04:00,75.4,50.7,29.93,NNE,30,7.0,7.0,42,0.00,,,0.00,765,Wunderground v.1.15,2013-08-23 18:04:00,
2013-08-23 14:10:00,75.7,51.6,29.93,NNE,28,7.0,7.0,43,0.00,,,0.00,738,Wunderground v.1.15,2013-08-23 18:10:00,
2013-08-23 14:14:00,75.6,51.5,29.93,North,5,5.0,7.0,43,0.00,,,0.00,751,Wunderground v.1.15,2013-08-23 18:14:00,
2013-08-23 14:34:00,75.8,52.3,29.93,NNE,29,6.0,10.0,44,0.00,,,0.00,679,Wunderground v.1.15,2013-08-23 18:34:00,
2013-08-23 14:40:00,76.2,51.4,29.93,WSW,250,5.0,5.0,42,0.00,,,0.00,708,Wunderground v.1.15,2013-08-23 18:40:00,
2013-08-23 14:44:00,75.9,51.8,29.93,NNW,338,5.0,5.0,43,0.00,,,0.00,689,Wunderground v.1.15,2013-08-23 18:44:00,
2013-08-23 14:50:00,76.4,52.9,29.94,NNE,21,4.0,4.0,44,0.00,,,0.00,645,Wunderground v.1.15,2013-08-23 18:50:00,
2013-08-23 15:00:00,76.3,52.2,29.94,NE,40,5.0,5.0,43,0.00,,,0.00,647,Wunderground v.1.15,2013-08-23 19:00:00,
2013-08-23 15:10:00,76.4,52.9,29.94,NNE,19,3.0,4.0,44,0.00,,,0.00,638,Wunderground v.1.15,2013-08-23 19:10:00,
2013-08-23 15:20:00,76.1,52.6,29.94,NNE,28,4.0,5.0,44,0.00,,,0.00,719,Wunderground v.1.15,2013-08-23 19:20:00,
2013-08-23 15:30:00,76.4,52.9,29.94,NE,47,3.0,3.0,44,0.00,,,0.00,552,Wunderground v.1.15,2013-08-23 19:30:00,
2013-08-23 15:40:00,76.4,52.9,29.94,NW,314,3.0,15.0,44,0.00,,,0.00,146,Wunderground v.1.15,2013-08-23 19:40:00,
2013-08-23 15:50:00,76.3,53.4,29.94,WNW,295,3.0,15.0,45,0.00,,,0.00,517,Wunderground v.1.15,2013-08-23 19:50:00,
2013-08-23 16:10:00,76.6,53.7,29.94,NNE,33,3.0,3.0,45,0.00,,,0.00,533,Wunderground v.1.15,2013-08-23 20:10:00,
2013-08-23 16:14:00,76.4,54.1,29.94,NNE,15,4.0,4.0,46,0.00,,,0.00,492,Wunderground v.1.15,2013-08-23 20:14:00,
2013-08-23 16:20:00,77.1,54.1,29.94,NNE,24,2.0,7.0,45,0.00,,,0.00,476,Wunderground v.1.15,2013-08-23 20:20:00,
2013-08-23 16:30:00,76.5,53.6,29.94,NE,44,4.0,8.0,45,0.00,,,0.00,446,Wunderground v.1.15,2013-08-23 20:30:00,
2013-08-23 16:40:00,75.6,53.4,29.95,NNE,32,4.0,4.0,46,0.00,,,0.00,54,Wunderground v.1.15,2013-08-23 20:40:00,
2013-08-23 17:04:00,74.8,53.2,29.95,NE,47,2.0,2.0,47,0.00,,,0.00,86,Wunderground v.1.15,2013-08-23 21:04:00,
2013-08-23 17:14:00,75.1,54.1,29.96,NE,39,2.0,2.0,48,0.00,,,0.00,316,Wunderground v.1.15,2013-08-23 21:14:00,
2013-08-23 17:24:00,75.4,53.2,29.96,NE,36,3.0,7.0,46,0.00,,,0.00,313,Wunderground v.1.15,2013-08-23 21:24:00,
2013-08-23 17:30:00,74.4,52.9,29.97,NNE,29,3.0,5.0,47,0.00,,,0.00,237,Wunderground v.1.15,2013-08-23 21:30:00,
2013-08-23 17:34:00,75.1,52.9,29.96,NNE,32,4.0,4.0,46,0.00,,,0.00,192,Wunderground v.1.15,2013-08-23 21:34:00,
2013-08-23 17:50:00,74.0,51.9,29.98,NE,44,4.0,9.0,46,0.00,,,0.00,163,Wunderground v.1.15,2013-08-23 21:50:00,
2013-08-23 17:54:00,74.2,53.2,29.97,NE,46,3.0,9.0,48,0.00,,,0.00,202,Wunderground v.1.15,2013-08-23 21:54:00,
2013-08-23 18:10:00,73.1,51.7,29.98,NE,38,2.0,7.0,47,0.00,,,0.00,37,Wunderground v.1.15,2013-08-23 22:10:00,
2013-08-23 18:14:00,73.6,51.5,29.98,NE,39,4.0,4.0,46,0.00,,,0.00,44,Wunderground v.1.15,2013-08-23 22:14:00,
2013-08-23 18:20:00,72.6,51.8,29.99,NNE,20,3.0,3.0,48,0.00,,,0.00,46,Wunderground v.1.15,2013-08-23 22:20:00,
2013-08-23 18:30:00,72.2,53.1,29.99,NE,44,1.0,4.0,51,0.00,,,0.00,25,Wunderground v.1.15,2013-08-23 22:30:00,
2013-08-23 18:40:00,71.6,52.0,30.00,North,10,3.0,3.0,50,0.00,,,0.00,19,Wunderground v.1.15,2013-08-23 22:40:00,
2013-08-23 18:50:00,71.1,51.0,30.00,NE,44,2.0,10.0,49,0.00,,,0.00,14,Wunderground v.1.15,2013-08-23 22:50:00,
2013-08-23 19:10:00,69.7,50.2,30.01,NNE,17,0.0,0.0,50,0.00,,,0.00,5,Wunderground v.1.15,2013-08-23 23:10:00,
2013-08-23 19:14:00,70.4,50.3,30.01,NNE,17,1.0,2.0,49,0.00,,,0.00,11,Wunderground v.1.15,2013-08-23 23:14:00,
2013-08-23 19:30:00,68.1,50.3,30.02,NNE,17,0.0,0.0,53,0.00,,,0.00,0,Wunderground v.1.15,2013-08-23 23:30:00,
2013-08-23 19:34:00,68.9,50.5,30.01,NNE,17,0.0,0.0,52,0.00,,,0.00,0,Wunderground v.1.15,2013-08-23 23:34:00,
2013-08-23 19:40:00,67.6,50.4,30.02,NNE,17,0.0,8.0,54,0.00,,,0.00,0,Wunderground v.1.15,2013-08-23 23:40:00,
2013-08-23 19:50:00,67.2,50.5,30.03,NNE,17,1.0,8.0,55,0.00,,,0.00,0,Wunderground v.1.15,2013-08-23 23:50:00,
2013-08-23 20:10:00,66.2,51.0,30.04,North,11,1.0,1.0,58,0.00,,,0.00,0,Wunderground v.1.15,2013-08-24 00:10:00,
2013-08-23 20:14:00,66.6,50.4,30.04,NNE,17,1.0,1.0,56,0.00,,,0.00,0,Wunderground v.1.15,2013-08-24 00:14:00,
2013-08-23 20:34:00,65.8,50.6,30.05,NNE,26,1.0,1.0,58,0.00,,,0.00,0,Wunderground v.1.15,2013-08-24 00:34:00,
2013-08-23 20:44:00,65.6,51.3,30.05,North,355,1.0,2.0,60,0.00,,,0.00,0,Wunderground v.1.15,2013-08-24 00:44:00,
2013-08-23 20:54:00,65.3,50.6,30.06,NNE,13,2.0,3.0,59,0.00,,,0.00,0,Wunderground v.1.15,2013-08-24 00:54:00,
2013-08-23 21:04:00,65.0,51.2,30.06,NNE,13,1.0,1.0,61,0.00,,,0.00,0,Wunderground v.1.15,2013-08-24 01:04:00,
2013-08-23 21:14:00,64.0,51.1,30.07,NNE,13,0.0,1.0,63,0.00,,,0.00,0,Wunderground v.1.15,2013-08-24 01:14:00,
2013-08-23 21:24:00,63.4,51.0,30.07,NNE,13,1.0,1.0,64,0.00,,,0.00,0,Wunderground v.1.15,2013-08-24 01:24:00,
2013-08-23 21:34:00,63.1,50.7,30.07,NNE,26,2.0,3.0,64,0.00,,,0.00,0,Wunderground v.1.15,2013-08-24 01:34:00,
2013-08-23 21:44:00,63.5,50.7,30.07,NNE,31,3.0,3.0,63,0.00,,,0.00,0,Wunderground v.1.15,2013-08-24 01:44:00,
2013-08-23 21:54:00,63.8,50.5,30.07,NNE,19,4.0,6.0,62,0.00,,,0.00,0,Wunderground v.1.15,2013-08-24 01:54:00,
2013-08-23 22:04:00,63.8,50.5,30.07,North,360,4.0,4.0,62,0.00,,,0.00,0,Wunderground v.1.15,2013-08-24 02:04:00,
2013-08-23 22:14:00,63.8,50.1,30.08,North,9,4.0,4.0,61,0.00,,,0.00,0,Wunderground v.1.15,2013-08-24 02:14:00,
2013-08-23 22:24:00,63.7,50.4,30.08,North,5,4.0,4.0,62,0.00,,,0.00,0,Wunderground v.1.15,2013-08-24 02:24:00,
2013-08-23 22:34:00,63.4,50.1,30.09,NNE,26,2.0,2.0,62,0.00,,,0.00,0,Wunderground v.1.15,2013-08-24 02:34:00,
2013-08-23 22:44:00,62.9,50.1,30.09,NNE,29,2.0,2.0,63,0.00,,,0.00,0,Wunderground v.1.15,2013-08-24 02:44:00,
2013-08-23 22:54:00,62.4,50.1,30.10,NNE,29,1.0,1.0,64,0.00,,,0.00,0,Wunderground v.1.15,2013-08-24 02:54:00,
2013-08-23 23:04:00,61.9,50.4,30.10,NNE,29,0.0,10.0,66,0.00,,,0.00,0,Wunderground v.1.15,2013-08-24 03:04:00,
2013-08-23 23:14:00,61.2,50.2,30.11,NNE,29,0.0,0.0,67,0.00,,,0.00,0,Wunderground v.1.15,2013-08-24 03:14:00,
2013-08-23 23:24:00,60.7,49.7,30.11,NNE,29,0.0,0.0,67,0.00,,,0.00,0,Wunderground v.1.15,2013-08-24 03:24:00,
2013-08-23 23:34:00,60.5,49.9,30.11,NNE,29,0.0,0.0,68,0.00,,,0.00,0,Wunderground v.1.15,2013-08-24 03:34:00,
2013-08-23 23:44:00,60.1,49.9,30.12,NNE,29,0.0,0.0,69,0.00,,,0.00,0,Wunderground v.1.15,2013-08-24 03:44:00,
2013-08-23 23:50:00,58.8,50.2,30.12,NNE,29,0.0,6.0,73,0.00,,,0.00,0,Wunderground v.1.15,2013-08-24 03:50:00,
2013-08-23 23:54:00,59.4,50.0,30.12,NNE,29,0.0,6.0,71,0.00,,,0.00,0,Wunderground v.1.15,2013-08-24 03:54:00,